Погода в Николаевской

Россия / Республика Северная Осетия — Алания     43°13′14″N   44°12′33″E
темп.,
°C
ветер,
м/с
пор.,
м/с
влажн.,
%
обл.,
%
осадки,
мм/ч
давл.,
гПа
погр.,
м
23 апреля, пт
пт2300:00+9зсз1194100 2.6 1022151
03:00+9юз2395100 7.4 1023221
06:00+9з2593100 5.3 1025293
09:00+9юз369098 8.2 1026335
12:00+15юз225610 0.2 10241282
15:00+17св11465 0.2 10221517
18:00+16вюв11575 0.0 102212
21:00+11юв226817 0.0 102120
24 апреля, сб
сб2400:00+9ююв117296 0.0 102015
03:00+8зсз117478 0.0 101911
06:00+8з117561 0.0 101917
09:00+14с225999 0.0 1018577
12:00+18ссз33505 0.0 10181293
15:00+19с424850 0.0 10181609
18:00+15ссв2265100 0.0 101948
21:00+14вюв1169100 0.0 102020
25 апреля, вс
вс2500:00+13с017099 0.0 102010
03:00+12сз127299 0.0 102135
06:00+11ссз1280100 0.0 1021157
09:00+14св136894 0.0 10201013
12:00+13св4475100 0.1 1019595
15:00+16в246095 0.1 10161225
18:00+16всв2467100 0.0 1014170
21:00+13всв2571100 0.0 1014221
26 апреля, пн
пн2600:00+10с117471 0.0 101319
03:00+8ссз1182100 0.1 101310
06:00+9сз0183100 0.0 101354
09:00+13ссв1167100 0.0 1011481
12:00+15с2160100 0.1 1009839
15:00+18с325762 0.1 10081206
18:00+14сз5881100 1.4 1010323
21:00+12ссв3497100 12.2 1012261
27 апреля, вт
вт2700:00+10сз2494100 2.1 1015341
03:00+9с2394100 2.4 1016321
06:00+9ссз2494100 1.3 1017312
09:00+9ссз3594100 2.6 1018436
12:00+8ссв1289100 1.2 1018352
15:00+9ю118379 1.3 1017451
18:00+10ююз118189 0.0 1018412
21:00+9ююв228819 0.0 101849